Regional Weather Roundup
Issued by NWS New Orleans/Baton Rouge, LA

Home | Current Version | Previous Version | Text Only | Print | Product List | Glossary Off
Versions: 1 2 3 4 5 6 7 8 9 10 11 12 13 14 15 16 17 18 19 20 21 22 23 24 25 26 27 28 29 30 31 32 33 34 35 36 37 38 39 40 41 42 43 44 45 46 47 48 49 50

372
ASUS44 KLIX 270811
RWRLIX
NEW ORLEANS REGIONAL WEATHER ROUNDUP
NATIONAL WEATHER SERVICE NEW ORLEANS LA
300 AM CDT FRI MAR 27 2015

NOTE: "FAIR" INDICATES FEW OR NO CLOUDS BELOW 12,000 FEET WITH NO
      SIGNIFICANT WEATHER AND/OR OBSTRUCTIONS TO VISIBILITY.
      SKY/WX - SKY CONDITION AND SIGNIFICANT WEATHER.
      TMP - AIR TEMPERATURE.     DP    - DEWPOINT TEMPERATURE.
      RH  - RELATIVE HUMIDITY.   PRES  - PRESSURE.
      HI  - HEAT INDEX.          WCI   - WIND CHILL INDEX.

*  THESE STATIONS ARE NOT NWS OR FAA STATIONS AND ARE NOT UNDER
   NWS QUALITY CONTROL.

LAZ038-040-048-061>063-065>067-069-270900-
SOUTHEAST LOUISIANA

CITY           SKY/WX    TMP DP  RH WIND       PRES   REMARKS
N.O. AUDUBON     N/A     57  55  94 MISG        N/A
N.O. INTL ARPT CLOUDY    56  48  74 N16       29.95S
N.O. LAKEFRONT CLOUDY    58  51  78 N20G29    29.95S
SLIDELL        CLOUDY    55  50  83 N8G20     29.93S
BATON ROUGE    CLOUDY    53  47  79 N8G17     30.00F
BOOTHVILLE     CLOUDY    60  58  92 NW16      29.90S
BELLE CHASSE   CLOUDY    57  50  77 N8G17     29.92F
BOGALUSA*        N/A     55  49  80 N14       29.97F
GALLIANO*      CLOUDY    59  56  89 MISG      29.93R
NEW ROADS*     CLOUDY    52  44  73 N16       30.03S
GONZALES*      CLOUDY    55  49  82 NW10G21   29.98F
HAMMOND*       CLOUDY    54  46  76 N9G18     29.98F
HOUMA*         CLOUDY    55  51  85 N14G20    29.95S
PORT FOURCHON* CLOUDY    61  57  88 N16G23    29.96R

$$

MSZ070-080>082-270900-
SOUTHERN MISSISSIPPI

CITY           SKY/WX    TMP DP  RH WIND       PRES   REMARKS
MCCOMB         CLOUDY    50  44  80 N15       29.99S
GULFPORT       CLOUDY    57  52  83 NW17G24   29.89S
BILOXI         CLOUDY    58  54  86 N13       29.88F
PASCAGOULA     CLOUDY    58  55  90 N13G21    29.88S

$$

COASTAL OBSERVATIONS
LAKE AND NEARSHORE STATIONS

STATION/POSITION TIME  TEMP    WIND        PRES    WAVE
                       AIR SEA DIR/SP/G            HT/PER
                 (UTC) (F)     (DEG/KT/KT) (MB)    (FT/S)
PASCAGOULA       0700   61     320/ 14/ 19 1011.5
WAVELAND YACHT   0700   58     350/ 17/ 21 1012.5
GRAND ISLE       0700   62     350/ 18/ 23 1012.6
SOUTHWEST PASS   0700   62     290/  6/  9 1012.3
NEW CANAL        0700   58                   N/A
SHELL BEACH      0700   59     330/ 19/ 22 1013.1

OFFSHORE STATIONS

STATION/POSITION TIME  TEMP    WIND        PRES    WAVE
                       AIR SEA DIR/SP/G            HT/PER
                 (UTC) (F)     (DEG/KT/KT) (MB)    (FT/S)
64 S DAUPHIN ISL 0750   68 73  280/ 19/ 21 1010.9    4/ 7

$$




USA.gov is the U.S. government's official web portal to all federal, state and local government web resources and services.